LHX8VV EDDM-EDDK

Flight info

Callsign LHX8VV
Flight time 0h 48m
Altitude 24000
Route GIVMI1N GIVMI Y101 ERNAS T161 GOLMO DCT AKANU L603 RATIM DCT ASKIK T840 GULKO GULKO1E
Aircraft A319/M-SDE3FGHIRWY/LB1

Departure

Time 2026-05-04 06:33
Airport Munich Airport (EDDM)

Arrival

Time 2026-05-04 07:22
Airport Cologne Bonn Airport (EDDK)
Time Latitude Longitude Altitude Speed Heading
2026-05-04 06:03 48.35643 11.79266 1486 ft 0 kts 263°
2026-05-04 06:21 48.35651 11.79371 1479 ft 4 kts 273°
2026-05-04 06:21 48.35644 11.79407 1471 ft 4 kts 314°
2026-05-04 06:22 48.35623 11.79425 1481 ft 3 kts 353°
2026-05-04 06:22 48.35607 11.79427 1479 ft 0 kts 353°
2026-05-04 06:26 48.35610 11.79427 1485 ft 1 kts 353°
2026-05-04 06:26 48.35622 11.79425 1477 ft 3 kts 353°
2026-05-04 06:27 48.35894 11.79514 1485 ft 14 kts 353°
2026-05-04 06:28 48.35993 11.79497 1486 ft 14 kts 353°
2026-05-04 06:28 48.36065 11.79484 1479 ft 6 kts 353°
2026-05-04 06:28 48.36106 11.79517 1479 ft 9 kts 62°
2026-05-04 06:28 48.36116 11.79629 1485 ft 13 kts 84°
2026-05-04 06:29 48.36128 11.79795 1485 ft 18 kts 83°
2026-05-04 06:29 48.36145 11.80000 1483 ft 20 kts 83°
2026-05-04 06:29 48.36162 11.80214 1480 ft 21 kts 83°
2026-05-04 06:29 48.36179 11.80432 1473 ft 21 kts 83°
2026-05-04 06:30 48.36196 11.80653 1481 ft 22 kts 83°
2026-05-04 06:30 48.36213 11.80879 1482 ft 22 kts 83°
2026-05-04 06:30 48.36231 11.81107 1485 ft 22 kts 83°
2026-05-04 06:30 48.36268 11.81278 1480 ft 15 kts 20°
2026-05-04 06:31 48.36374 11.81254 1479 ft 16 kts 338°
2026-05-04 06:31 48.36435 11.81122 1483 ft 16 kts 294°
2026-05-04 06:31 48.36481 11.80966 1478 ft 17 kts 293°
2026-05-04 06:31 48.36530 11.80795 1478 ft 19 kts 293°
2026-05-04 06:32 48.36568 11.80580 1481 ft 25 kts 272°
2026-05-04 06:33 48.35795 11.70387 4069 ft 201 kts 264°
2026-05-04 06:34 48.35782 11.68192 4479 ft 223 kts 282°
2026-05-04 06:34 48.36468 11.65976 4917 ft 246 kts 303°
2026-05-04 06:34 48.37404 11.63747 5560 ft 265 kts 302°
2026-05-04 06:34 48.38395 11.61383 6523 ft 270 kts 301°
2026-05-04 06:35 48.39398 11.58952 7450 ft 276 kts 300°
2026-05-04 06:36 48.48220 11.42546 13573 ft 332 kts 340°
2026-05-04 06:37 48.50570 11.41798 13878 ft 357 kts 348°
2026-05-04 06:37 48.53055 11.41146 14430 ft 367 kts 348°
2026-05-04 06:37 48.55592 11.40473 15133 ft 373 kts 348°
2026-05-04 06:37 48.58157 11.39783 15879 ft 377 kts 348°
2026-05-04 06:38 48.60751 11.39077 16630 ft 380 kts 347°
2026-05-04 06:38 48.63369 11.38355 17376 ft 385 kts 347°
2026-05-04 06:40 48.80402 11.26057 22054 ft 402 kts 324°
2026-05-04 06:40 48.82735 11.23693 22695 ft 405 kts 324°
2026-05-04 06:40 48.85015 11.21174 23316 ft 406 kts 317°
2026-05-04 06:40 48.87076 11.18319 23836 ft 408 kts 315°
2026-05-04 06:41 48.89166 11.15401 24003 ft 408 kts 315°
2026-05-04 06:41 48.91254 11.12494 24051 ft 407 kts 315°
2026-05-04 06:41 48.93340 11.09584 24060 ft 407 kts 314°
2026-05-04 06:41 48.95223 11.06408 24061 ft 404 kts 304°
2026-05-04 06:42 48.96700 11.02801 24066 ft 400 kts 294°
2026-05-04 06:42 48.97741 10.98902 24061 ft 396 kts 286°
2026-05-04 06:42 48.98617 10.94936 24070 ft 395 kts 286°
2026-05-04 06:44 49.04597 10.68582 24068 ft 397 kts 293°
2026-05-04 06:44 49.06008 10.64954 24071 ft 400 kts 303°
2026-05-04 06:44 49.07840 10.61745 24084 ft 403 kts 312°
2026-05-04 06:45 49.09855 10.58776 24089 ft 403 kts 313°
2026-05-04 06:45 49.11865 10.55802 24089 ft 402 kts 312°
2026-05-04 06:45 49.13870 10.52822 24090 ft 402 kts 312°
2026-05-04 06:45 49.15872 10.49846 24088 ft 402 kts 312°
2026-05-04 06:46 49.17874 10.46869 24077 ft 402 kts 312°
2026-05-04 06:46 49.19875 10.43888 24076 ft 402 kts 312°
2026-05-04 06:46 49.21875 10.40904 24078 ft 401 kts 312°
2026-05-04 06:46 49.23834 10.37875 24074 ft 399 kts 308°
2026-05-04 06:48 49.36129 10.14865 24056 ft 399 kts 306°
2026-05-04 06:48 49.37881 10.11565 24054 ft 398 kts 306°
2026-05-04 06:49 49.39629 10.08270 24052 ft 398 kts 306°
2026-05-04 06:50 49.51853 9.85127 24056 ft 398 kts 305°
2026-05-04 06:51 49.53595 9.81808 24049 ft 399 kts 305°
2026-05-04 06:51 49.55312 9.78529 24044 ft 399 kts 305°
2026-05-04 06:51 49.57052 9.75202 24051 ft 399 kts 305°
2026-05-04 06:51 49.58792 9.71875 24047 ft 399 kts 305°
2026-05-04 06:52 49.60534 9.68544 24044 ft 399 kts 305°
2026-05-04 06:52 49.62273 9.65216 24040 ft 399 kts 305°
2026-05-04 06:52 49.64011 9.61886 24035 ft 398 kts 305°
2026-05-04 06:52 49.65744 9.58551 24031 ft 398 kts 305°
2026-05-04 06:53 49.67475 9.55218 24030 ft 398 kts 305°
2026-05-04 06:53 49.69177 9.51849 24028 ft 396 kts 301°
2026-05-04 06:53 49.70603 9.48228 24032 ft 394 kts 296°
2026-05-04 06:53 49.71966 9.44554 24031 ft 394 kts 296°
2026-05-04 06:54 49.73329 9.40878 24024 ft 394 kts 296°
2026-05-04 06:54 49.74687 9.37202 24023 ft 394 kts 296°
2026-05-04 06:54 49.76047 9.33523 24021 ft 394 kts 296°
2026-05-04 06:54 49.77410 9.29843 24020 ft 394 kts 296°
2026-05-04 06:55 49.78774 9.26164 24022 ft 394 kts 296°
2026-05-04 06:55 49.80132 9.22485 24019 ft 394 kts 296°
2026-05-04 06:55 49.81492 9.18801 24020 ft 394 kts 296°
2026-05-04 06:55 49.82852 9.15117 24018 ft 394 kts 296°
2026-05-04 06:56 49.84210 9.11427 24027 ft 394 kts 296°
2026-05-04 06:57 49.93682 8.85499 24023 ft 395 kts 295°
2026-05-04 06:58 49.95033 8.81783 24019 ft 395 kts 295°
2026-05-04 06:58 49.96381 8.78071 24022 ft 395 kts 295°
2026-05-04 06:58 49.97727 8.74353 24020 ft 395 kts 295°
2026-05-04 06:58 49.99071 8.70631 24020 ft 395 kts 295°
2026-05-04 06:59 50.00411 8.66904 24022 ft 395 kts 295°
2026-05-04 06:59 50.01749 8.63182 24020 ft 395 kts 295°
2026-05-04 06:59 50.03119 8.59477 24018 ft 396 kts 299°
2026-05-04 06:59 50.04849 8.56105 24018 ft 402 kts 310°
2026-05-04 07:01 50.23200 8.43698 24024 ft 419 kts 336°
2026-05-04 07:01 50.25953 8.42197 24019 ft 419 kts 336°
2026-05-04 07:02 50.28670 8.40596 24015 ft 416 kts 331°
2026-05-04 07:02 50.31187 8.38424 24019 ft 411 kts 323°
2026-05-04 07:02 50.33594 8.36013 24015 ft 411 kts 323°
2026-05-04 07:02 50.36010 8.33606 24022 ft 412 kts 323°
2026-05-04 07:03 50.38414 8.31212 24019 ft 413 kts 323°
2026-05-04 07:03 50.40836 8.28797 23840 ft 411 kts 323°
2026-05-04 07:03 50.43241 8.26399 23243 ft 409 kts 323°
2026-05-04 07:03 50.45631 8.24017 22662 ft 406 kts 323°
2026-05-04 07:04 50.48008 8.21647 22136 ft 403 kts 323°
2026-05-04 07:04 50.50362 8.19291 21653 ft 400 kts 323°
2026-05-04 07:04 50.52697 8.16945 21164 ft 397 kts 323°
2026-05-04 07:04 50.55016 8.14610 20685 ft 394 kts 323°
2026-05-04 07:05 50.57313 8.12293 20204 ft 391 kts 323°
2026-05-04 07:05 50.59595 8.09985 19734 ft 389 kts 323°
2026-05-04 07:05 50.61861 8.07685 19285 ft 386 kts 323°
2026-05-04 07:05 50.64103 8.05406 18841 ft 383 kts 323°
2026-05-04 07:06 50.68549 8.00896 17861 ft 377 kts 323°
2026-05-04 07:06 50.70749 7.98660 17353 ft 374 kts 323°
2026-05-04 07:06 50.72923 7.96447 16884 ft 371 kts 322°
2026-05-04 07:07 50.74924 7.93958 16408 ft 362 kts 312°
2026-05-04 07:08 50.84405 7.71808 13068 ft 339 kts 300°
2026-05-04 07:09 50.85674 7.68688 12581 ft 336 kts 300°
2026-05-04 07:09 50.86930 7.65590 12100 ft 333 kts 300°
2026-05-04 07:09 50.88169 7.62524 11621 ft 329 kts 300°
2026-05-04 07:09 50.89396 7.59482 11143 ft 326 kts 300°
2026-05-04 07:10 50.90607 7.56465 10658 ft 323 kts 300°
2026-05-04 07:10 50.91805 7.53475 10188 ft 320 kts 299°
2026-05-04 07:12 50.99187 7.35059 8075 ft 262 kts 300°
2026-05-04 07:12 51.00165 7.32599 7743 ft 258 kts 300°
2026-05-04 07:12 51.01119 7.30202 7421 ft 254 kts 300°
2026-05-04 07:12 51.02041 7.27876 7101 ft 250 kts 300°
2026-05-04 07:13 51.02962 7.25554 6780 ft 247 kts 300°
2026-05-04 07:13 51.03877 7.23252 6470 ft 245 kts 300°
2026-05-04 07:13 51.04784 7.20964 6139 ft 245 kts 300°
2026-05-04 07:14 51.07742 7.11450 4822 ft 240 kts 274°
2026-05-04 07:14 51.07733 7.08812 4491 ft 238 kts 265°
2026-05-04 07:15 51.07632 7.06206 4157 ft 235 kts 265°
2026-05-04 07:15 51.07537 7.03624 3826 ft 232 kts 266°
2026-05-04 07:15 51.07446 7.01074 3497 ft 230 kts 266°
2026-05-04 07:15 51.07249 6.98571 3171 ft 227 kts 254°
2026-05-04 07:16 51.06625 6.96312 3002 ft 220 kts 237°
2026-05-04 07:16 51.05653 6.94442 3005 ft 217 kts 227°
2026-05-04 07:16 51.04524 6.92886 3003 ft 216 kts 207°
2026-05-04 07:16 51.03073 6.92378 3006 ft 217 kts 177°
2026-05-04 07:17 51.01657 6.93139 3004 ft 219 kts 146°
2026-05-04 07:17 51.00509 6.94743 3010 ft 220 kts 138°
2026-05-04 07:17 50.99389 6.96385 3005 ft 217 kts 138°
2026-05-04 07:17 50.98296 6.97983 2919 ft 211 kts 138°
2026-05-04 07:18 50.97241 6.99524 2713 ft 203 kts 139°
2026-05-04 07:18 50.96214 7.01022 2435 ft 196 kts 139°
2026-05-04 07:18 50.95240 7.02442 2176 ft 185 kts 139°
2026-05-04 07:18 50.94317 7.03787 1940 ft 175 kts 139°
2026-05-04 07:19 50.93440 7.05064 1707 ft 168 kts 139°
2026-05-04 07:19 50.92624 7.06252 1486 ft 158 kts 139°
2026-05-04 07:19 50.91839 7.07393 1278 ft 147 kts 139°
2026-05-04 07:19 50.91128 7.08435 1072 ft 134 kts 139°
2026-05-04 07:20 50.90464 7.09405 867 ft 128 kts 138°
2026-05-04 07:20 50.89816 7.10344 698 ft 126 kts 137°
2026-05-04 07:20 50.89175 7.11274 523 ft 124 kts 137°
2026-05-04 07:20 50.88543 7.12191 398 ft 123 kts 137°
2026-05-04 07:22 50.86924 7.13983 252 ft 23 kts 280°
2026-05-04 07:22 50.87023 7.13778 243 ft 25 kts 318°
2026-05-04 07:23 50.87155 7.13587 238 ft 27 kts 317°
2026-05-04 07:23 50.87286 7.13398 233 ft 25 kts 317°
2026-05-04 07:23 50.87419 7.13206 232 ft 26 kts 317°
2026-05-04 07:23 50.87550 7.13017 232 ft 24 kts 317°
2026-05-04 07:24 50.87664 7.12850 232 ft 22 kts 317°
2026-05-04 07:24 50.87777 7.12686 232 ft 22 kts 318°
2026-05-04 07:24 50.87880 7.12612 232 ft 13 kts
2026-05-04 07:24 50.87961 7.12555 232 ft 13 kts 316°
2026-05-04 07:25 50.88016 7.12473 232 ft 6 kts 317°
2026-05-04 07:26 50.87984 7.12373 233 ft 0 kts 216°